DL5ARK Weather Reports


Display with metric or nautical units.
time (UTC)temp
F
wind
direction
speed
MPH
gust
MPH
rain 1hr
in
rain 24hr
in
rain mn
in
humidity
%
barometer
mb
20260905120606 68 225 9.0 9.0 0.00 0.00 0.00 50 1008.2
20260905120305 68 337 14.0 14.0 0.00 0.00 0.00 48 1008.2
20260905120005 69 292 9.0 9.0 0.00 0.00 0.00 49 1008.2
20260905115405 68 292 5.0 5.0 0.00 0.00 0.00 49 1008.2
20260905115106 69 315 8.0 8.0 0.00 0.00 0.00 50 1008.2
20260905114806 69 292 3.0 4.0 0.00 0.00 0.00 50 1008.2
20260905114506 70 247 4.0 4.0 0.00 0.00 0.00 50 1008.2
20260905114205 68 270 8.0 8.0 0.00 0.00 0.00 49 1008.2
20260905113906 68 337 10.0 10.0 0.00 0.00 0.00 49 1008.2
20260905113305 69 292 9.0 9.0 0.00 0.00 0.00 50 1008.2
20260905113005 70 337 10.0 10.0 0.00 0.00 0.00 53 1008.2
20260905112705 69 337 6.0 6.0 0.00 0.00 0.00 52 1008.5
20260905112406 69 270 7.0 7.0 0.00 0.00 0.00 51 1008.5
20260905112107 69 337 7.0 7.0 0.00 0.00 0.00 51 1008.5
20260905111805 69 225 4.0 4.0 0.00 0.00 0.00 54 1008.5
20260905111509 68 337 8.0 8.0 0.00 0.00 0.00 53 1008.2
20260905111206 68 225 4.0 4.0 0.00 0.00 0.00 56 1008.5
20260905110905 68 270 14.0 14.0 0.00 0.00 0.00 56 1008.2
20260905110606 67 315 6.0 7.0 0.00 0.00 0.00 57 1008.5
20260905110306 67 270 10.0 10.0 0.00 0.00 0.00 58 1008.7
20260905110006 65 270 8.0 8.0 0.00 0.00 0.00 57 1008.5
20260905105405 66 292 6.0 6.0 0.00 0.00 0.00 55 1008.5
20260905105106 67 270 13.0 13.0 0.00 0.00 0.00 55 1008.5
20260905104806 68 270 8.0 8.0 0.00 0.00 0.00 56 1008.2
20260905104505 69 292 5.0 5.0 0.00 0.00 0.00 56 1008.2
20260905104206 68 292 6.0 6.0 0.00 0.00 0.00 57 1008.5
20260905103907 66 22 4.0 4.0 0.00 0.00 0.00 56 1008.5
20260905103306 67 315 4.0 4.0 0.00 0.00 0.00 57 1008.2
20260905103005 68 292 16.0 16.0 0.00 0.00 0.00 56 1008.5
20260905102705 68 247 7.0 7.0 0.00 0.00 0.00 59 1008.5
20260905102407 68 337 6.0 6.0 0.00 0.00 0.00 58 1008.2
20260905102106 68 225 5.0 5.0 0.00 0.00 0.00 59 1008.5
20260905101809 68 270 9.0 9.0 0.00 0.00 0.00 61 1008.5
20260905101506 68 202 3.0 3.0 0.00 0.00 0.00 63 1008.7
20260905101205 66 315 6.0 6.0 0.00 0.00 0.00 62 1008.5
20260905100906 66 225 6.0 6.0 0.00 0.00 0.00 62 1008.5
20260905100606 65 247 7.0 7.0 0.00 0.00 0.00 62 1008.5
20260905100306 65 292 8.0 8.0 0.00 0.00 0.00 63 1008.5
20260905100005 64 270 10.0 10.0 0.00 0.00 0.00 62 1008.5
20260905095407 64 337 13.0 13.0 0.00 0.00 0.00 62 1008.5
20260905095106 65 247 4.0 4.0 0.00 0.00 0.00 61 1008.5
20260905094806 65 180 3.0 3.0 0.00 0.00 0.00 62 1008.5
20260905094506 66 292 9.0 9.0 0.00 0.00 0.00 63 1008.2
20260905094206 67 270 6.0 6.0 0.00 0.00 0.00 65 1008.2
20260905093906 65 270 5.0 5.0 0.00 0.00 0.00 62 1008.2
20260905093305 66 337 5.0 5.0 0.00 0.00 0.00 65 1008.2
20260905093006 66 315 9.0 9.0 0.00 0.00 0.00 65 1008.2
20260905092706 65 202 6.0 6.0 0.00 0.00 0.00 66 1008.2
20260905092406 65 337 8.0 8.0 0.00 0.00 0.00 66 1008.5
20260905092106 65 270 10.0 10.0 0.00 0.00 0.00 67 1008.2
20260905091507 65 247 3.0 3.0 0.00 0.00 0.00 67 1008.2
20260905091206 64 247 10.0 10.0 0.00 0.00 0.00 69 1008.2
20260905090906 64 270 8.0 8.0 0.00 0.00 0.00 68 1008.2
20260905090606 63 270 10.0 10.0 0.00 0.00 0.00 68 1008.2
20260905090306 63 270 4.0 4.0 0.00 0.00 0.00 68 1008.2
20260905090006 63 225 11.0 11.0 0.00 0.00 0.00 67 1008.2
20260905085405 63 315 6.0 6.0 0.00 0.00 0.00 68 1008.2
20260905085106 63 270 7.0 7.0 0.00 0.00 0.00 69 1008.0
20260905084805 64 337 9.0 9.0 0.00 0.00 0.00 69 1008.2
20260905084506 63 337 9.0 9.0 0.00 0.00 0.00 68 1008.0
20260905084206 63 270 6.0 6.0 0.00 0.00 0.00 71 1008.0
20260905083605 63 270 5.0 5.0 0.00 0.00 0.00 71 1008.0
20260905083005 62 270 7.0 7.0 0.00 0.00 0.00 72 1008.0
20260905082706 62 270 8.0 8.0 0.00 0.00 0.00 72 1008.0
20260905082406 62 225 11.0 11.0 0.00 0.00 0.00 73 1008.0
20260905082108 62 247 9.0 9.0 0.00 0.00 0.00 73 1008.0
20260905081805 62 225 12.0 12.0 0.00 0.00 0.00 73 1007.7
20260905081506 62 247 5.0 5.0 0.00 0.00 0.00 73 1007.7
20260905081206 62 225 6.0 6.0 0.00 0.00 0.00 74 1008.0
20260905080905 62 337 4.0 4.0 0.00 0.00 0.00 74 1007.7
20260905080605 62 225 8.0 8.0 0.00 0.00 0.00 75 1008.0
20260905080305 62 202 5.0 5.0 0.00 0.00 0.00 76 1007.7
20260905080009 61 225 9.0 9.0 0.00 0.00 0.00 76 1007.7
20260905075705 61 337 2.0 2.0 0.00 0.00 0.00 75 1007.7
20260905075405 61 337 8.0 8.0 0.00 0.00 0.00 76 1007.7
20260905075105 62 270 6.0 6.0 0.00 0.00 0.00 77 1008.0
20260905074806 61 225 7.0 7.0 0.00 0.00 0.00 77 1007.7
20260905074506 61 337 6.0 6.0 0.00 0.00 0.00 78 1007.7
20260905074206 60 270 11.0 11.0 0.00 0.00 0.00 79 1007.7
20260905073606 60 225 6.0 6.0 0.00 0.00 0.00 80 1007.7
20260905073306 60 337 2.0 2.0 0.00 0.00 0.00 79 1007.7
20260905073006 60 225 3.0 3.0 0.00 0.00 0.00 79 1007.7
20260905072705 60 337 4.0 4.0 0.00 0.00 0.00 79 1007.5
20260905072405 59 270 2.0 2.0 0.00 0.00 0.00 79 1007.7
20260905071806 59 270 3.0 3.0 0.00 0.00 0.00 79 1007.7
20260905071506 59 270 3.0 3.0 0.00 0.00 0.00 79 1007.7
20260905071206 59 180 6.0 6.0 0.00 0.00 0.00 80 1007.7
20260905070906 59 337 5.0 5.0 0.00 0.00 0.00 81 1007.5
20260905070606 59 225 6.0 6.0 0.00 0.00 0.00 82 1007.5
20260905070306 59 180 4.0 4.0 0.00 0.00 0.00 82 1007.5
20260905070009 59 225 3.0 3.0 0.00 0.00 0.00 82 1007.5
20260905065706 59 292 0.0 0.0 0.00 0.00 0.00 82 1007.5
20260905065406 58 90 1.0 1.0 0.00 0.00 0.00 81 1007.5
20260905065106 58 67 1.0 1.0 0.00 0.00 0.00 81 1007.2
20260905064806 58 67 0.0 0.0 0.00 0.00 0.00 82 1007.2
20260905064506 57 67 1.0 1.0 0.00 0.00 0.00 81 1007.2
20260905064206 57 337 0.0 0.0 0.00 0.00 0.00 81 1007.2
20260905063606 57 247 0.0 0.0 0.00 0.00 0.00 80 1007.2
20260905063305 57 247 0.0 0.0 0.00 0.00 0.00 80 1007.2
20260905063006 56 225 1.0 1.0 0.00 0.00 0.00 81 1007.2
20260905062705 56 180 0.0 0.0 0.00 0.00 0.00 80 1007.2
20260905062406 56 90 0.0 0.0 0.00 0.00 0.00 80 1007.2
20260905062108 56 90 0.0 0.0 0.00 0.00 0.00 80 1007.0
20260905061805 56 67 0.0 0.0 0.00 0.00 0.00 81 1007.2
20260905061505 56 67 1.0 1.0 0.00 0.00 0.00 80 1007.2
20260905061206 55 90 0.0 0.0 0.00 0.00 0.00 80 1007.0
20260905060905 55 67 0.0 0.0 0.00 0.00 0.00 81 1007.2
20260905060606 55 337 0.0 0.0 0.00 0.00 0.00 80 1007.2
20260905060305 55 67 0.0 0.0 0.00 0.00 0.00 80 1007.2
20260905055706 54 90 0.0 0.0 0.00 0.00 0.00 80 1007.0
20260905055406 54 90 0.0 0.0 0.00 0.00 0.00 80 1006.7
20260905055105 54 90 0.0 0.0 0.00 0.00 0.00 80 1006.7
20260905054805 55 90 0.0 0.0 0.00 0.00 0.00 80 1006.7
20260905054506 55 90 0.0 0.0 0.00 0.00 0.00 79 1006.7
20260905053905 54 90 1.0 1.0 0.00 0.00 0.00 79 1006.7
20260905053605 54 337 0.0 0.0 0.00 0.00 0.00 79 1006.5
20260905053305 54 112 0.0 0.0 0.00 0.00 0.00 79 1006.7
20260905053005 54 112 0.0 0.0 0.00 0.00 0.00 79 1006.7
20260905052706 54 135 0.0 0.0 0.00 0.00 0.00 79 1006.5
20260905052106 54 135 0.0 0.0 0.00 0.00 0.00 78 1006.5
20260905051806 53 135 0.0 0.0 0.00 0.00 0.00 78 1006.5
20260905051206 53 135 0.0 0.0 0.00 0.00 0.00 77 1006.5
20260905050605 53 45 0.0 0.0 0.00 0.00 0.00 77 1006.5
20260905050305 52 45 0.0 0.0 0.00 0.00 0.00 77 1006.2
20260905050006 52 90 0.0 0.0 0.00 0.00 0.00 77 1006.2
20260905045706 52 90 0.0 0.0 0.00 0.00 0.00 77 1006.2
20260905045407 52 90 0.0 0.0 0.00 0.00 0.00 76 1006.2
20260905045107 52 67 1.0 1.0 0.00 0.00 0.00 76 1006.2
20260905044809 52 45 0.0 0.0 0.00 0.00 0.00 75 1006.2
20260905044506 52 45 0.0 0.0 0.00 0.00 0.00 76 1006.2
20260905044206 52 45 0.0 0.0 0.00 0.00 0.00 76 1006.2
20260905043906 52 45 0.0 0.0 0.00 0.00 0.00 76 1006.2
20260905043606 52 45 0.0 0.0 0.00 0.00 0.00 75 1006.2
20260905043306 52 45 0.0 0.0 0.00 0.00 0.00 76 1006.0
20260905043005 53 45 0.0 0.0 0.00 0.00 0.00 76 1006.0
20260905042406 53 45 0.0 0.0 0.00 0.00 0.00 75 1005.7
20260905042107 53 45 0.0 0.0 0.00 0.00 0.00 75 1005.7
20260905041805 53 45 0.0 0.0 0.00 0.00 0.00 75 1005.7
20260905041506 54 112 0.0 0.0 0.00 0.00 0.00 76 1005.7
20260905041206 54 112 0.0 0.0 0.00 0.00 0.00 76 1005.5
20260905040906 54 112 0.0 0.0 0.00 0.00 0.00 76 1005.2
20260905040306 54 22 0.0 0.0 0.00 0.00 0.00 76 1005.5
20260905040005 54 22 0.0 0.0 0.00 0.00 0.00 76 1005.5
20260905035706 54 22 0.0 0.0 0.00 0.00 0.00 76 1005.5
20260905035406 55 22 0.0 0.0 0.00 0.00 0.00 76 1005.5
20260905035106 55 22 0.0 0.0 0.00 0.00 0.00 75 1005.5
20260905034506 55 22 0.0 0.0 0.00 0.00 0.00 75 1005.5
20260905034206 54 22 0.0 0.0 0.00 0.00 0.00 75 1005.5
20260905033906 55 90 0.0 0.0 0.00 0.00 0.00 76 1005.5
20260905033606 55 337 0.0 0.0 0.00 0.00 0.00 75 1005.5
20260905033305 55 337 0.0 0.0 0.00 0.00 0.00 75 1005.5
20260905033005 55 90 0.0 0.0 0.00 0.00 0.00 75 1005.5
20260905032708 55 337 0.0 0.0 0.00 0.00 0.00 75 1005.2
20260905032405 55 337 0.0 0.0 0.00 0.00 0.00 75 1005.5
20260905032106 55 90 0.0 0.0 0.00 0.00 0.00 75 1005.5
20260905031806 55 90 0.0 0.0 0.00 0.00 0.00 75 1005.2
20260905031505 56 90 0.0 0.0 0.00 0.00 0.00 75 1005.2
20260905031206 56 45 0.0 0.0 0.00 0.00 0.00 75 1005.2
20260905030906 56 45 0.0 0.0 0.00 0.00 0.00 75 1005.2
20260905030306 56 0 0.0 0.0 0.00 0.00 0.00 75 1005.2
20260905030005 56 0 0.0 0.0 0.00 0.00 0.00 74 1005.2
20260905025706 56 0 0.0 0.0 0.00 0.00 0.00 74 1005.2
20260905025406 56 337 0.0 0.0 0.00 0.00 0.00 73 1005.2
20260905024805 56 337 0.0 0.0 0.00 0.00 0.00 72 1005.2
20260905024506 56 337 0.0 0.0 0.00 0.00 0.00 72 1005.2
20260905024205 56 337 0.0 0.0 0.00 0.00 0.00 72 1005.2
20260905023906 56 337 0.0 0.0 0.00 0.00 0.00 72 1005.2
20260905023606 56 337 0.0 0.0 0.00 0.00 0.00 72 1005.0
20260905023306 57 337 0.0 0.0 0.00 0.00 0.00 72 1004.7
20260905023008 56 337 0.0 0.0 0.00 0.00 0.00 72 1005.0
20260905022706 57 337 0.0 0.0 0.00 0.00 0.00 72 1005.0
20260905022406 57 337 0.0 0.0 0.00 0.00 0.00 72 1004.7
20260905022106 57 337 0.0 0.0 0.00 0.00 0.00 72 1005.0
20260905021805 57 337 1.0 1.0 0.00 0.00 0.00 72 1005.0
20260905021506 56 0 2.0 2.0 0.00 0.00 0.00 72 1005.0
20260905021205 56 0 0.0 0.0 0.00 0.00 0.00 72 1005.0
20260905020606 57 0 2.0 2.0 0.00 0.00 0.00 71 1004.7
20260905020306 57 292 1.0 1.0 0.00 0.00 0.00 70 1004.5
20260905020006 57 225 0.0 0.0 0.00 0.00 0.00 70 1004.5
20260905015706 57 135 0.0 0.0 0.00 0.00 0.00 71 1004.2
20260905015406 57 135 0.0 0.0 0.00 0.00 0.00 71 1004.2
20260905015108 57 112 0.0 0.0 0.00 0.00 0.00 70 1004.5
20260905014806 57 225 0.0 0.0 0.00 0.00 0.00 69 1004.5
20260905014506 58 225 0.0 0.0 0.00 0.00 0.00 69 1004.5
20260905014205 58 337 0.0 0.0 0.00 0.00 0.00 69 1004.5
20260905013906 58 337 1.0 1.0 0.00 0.00 0.00 69 1004.5
20260905013306 58 180 2.0 2.0 0.00 0.00 0.00 69 1004.2
20260905013006 58 180 1.0 1.0 0.00 0.00 0.00 68 1004.5
20260905012706 58 337 0.0 0.0 0.00 0.00 0.00 68 1004.7
20260905012406 58 337 1.0 1.0 0.00 0.00 0.00 69 1004.7
20260905011805 58 225 0.0 0.0 0.00 0.00 0.00 68 1004.7
20260905011506 58 225 0.0 0.0 0.00 0.00 0.00 68 1004.7
20260905011205 58 315 0.0 0.0 0.00 0.00 0.00 67 1004.2
20260905010906 58 315 0.0 0.0 0.00 0.00 0.00 67 1004.2
20260905010606 58 315 0.0 0.0 0.00 0.00 0.00 66 1004.5
20260905010305 59 270 0.0 0.0 0.00 0.00 0.00 66 1004.5
20260905010009 59 292 0.0 0.0 0.00 0.00 0.00 66 1004.5
20260905005706 59 270 0.0 0.0 0.00 0.00 0.00 66 1004.2
20260905005405 59 225 1.0 1.0 0.00 0.00 0.00 66 1004.2
20260905005106 59 270 1.0 1.0 0.00 0.00 0.00 65 1003.8
20260905004805 59 337 1.0 1.0 0.00 0.00 0.00 65 1004.0
20260905004506 59 225 3.0 3.0 0.00 0.00 0.00 65 1004.0
20260905004207 59 315 3.0 3.0 0.00 0.00 0.00 64 1004.2
20260905003908 59 225 4.0 4.0 0.00 0.00 0.00 64 1004.0
20260905003606 59 292 1.0 1.0 0.00 0.00 0.00 64 1003.5
20260905003305 60 270 3.0 3.0 0.00 0.00 0.00 63 1003.8
20260905003005 60 270 4.0 4.0 0.00 0.00 0.00 63 1003.8
20260905002705 60 292 3.0 3.0 0.00 0.00 0.00 62 1003.8
20260905002406 60 315 3.0 3.0 0.00 0.00 0.00 62 1003.8
20260905001806 60 337 4.0 4.0 0.00 0.00 0.00 60 1003.8
20260905001506 60 270 2.0 2.0 0.00 0.00 0.00 60 1003.8
20260905001205 60 292 4.0 4.0 0.00 0.00 0.00 58 1003.5
20260905000906 60 270 2.0 2.0 0.00 0.00 0.00 59 1003.5
20260905000606 60 270 2.0 2.0 0.00 0.00 0.00 59 1003.8
20260905000305 61 270 4.0 4.0 0.00 0.00 0.00 59 1003.8
20260904235706 61 270 4.0 4.0 0.00 0.00 0.00 59 1003.8
20260904235406 61 270 4.0 4.0 0.00 0.00 0.00 58 1003.5
20260904235106 61 292 2.0 2.0 0.00 0.00 0.00 59 1003.3
20260904234806 61 337 2.0 2.0 0.00 0.00 0.00 59 1003.3
20260904234505 61 270 2.0 2.0 0.00 0.00 0.00 59 1003.3
20260904234208 61 270 5.0 5.0 0.00 0.00 0.00 60 1003.0
20260904233906 61 315 2.0 2.0 0.00 0.00 0.00 60 1003.0
20260904233606 61 315 3.0 3.0 0.00 0.00 0.00 60 1003.0
20260904233306 61 315 2.0 2.0 0.00 0.00 0.00 60 1003.0
20260904233005 61 337 3.0 3.0 0.00 0.00 0.00 60 1003.3
20260904232706 61 337 7.0 7.0 0.00 0.00 0.00 60 1003.5
20260904232407 61 247 2.0 2.0 0.00 0.00 0.00 59 1003.5
20260904231806 61 270 4.0 4.0 0.00 0.00 0.00 59 1003.5
20260904231505 62 202 3.0 3.0 0.00 0.00 0.00 58 1003.5
20260904231205 62 270 4.0 4.0 0.00 0.00 0.00 58 1003.8
20260904230905 62 270 4.0 4.0 0.00 0.00 0.00 57 1003.0
20260904230305 62 337 3.0 3.0 0.00 0.00 0.00 55 1002.8
20260904230005 62 270 10.0 10.0 0.00 0.00 0.00 55 1003.0
20260904225705 62 247 4.0 4.0 0.00 0.00 0.00 55 1003.3
20260904225406 62 315 6.0 6.0 0.00 0.00 0.00 56 1003.3
20260904225106 62 270 5.0 5.0 0.00 0.00 0.00 57 1002.8
20260904224808 62 292 4.0 4.0 0.00 0.00 0.00 56 1003.0
20260904224506 62 270 3.0 3.0 0.00 0.00 0.00 55 1003.0
20260904224205 62 292 5.0 5.0 0.00 0.00 0.00 56 1003.3
20260904223906 62 292 5.0 5.0 0.00 0.00 0.00 56 1003.3
20260904223606 62 315 3.0 3.0 0.00 0.00 0.00 57 1003.3
20260904223005 63 292 12.0 12.0 0.00 0.00 0.00 56 1003.8
20260904222706 63 315 9.0 9.0 0.00 0.00 0.00 56 1003.5
20260904222405 63 315 6.0 6.0 0.00 0.00 0.00 56 1003.5
20260904222106 63 315 6.0 6.0 0.00 0.00 0.00 56 1003.3
20260904221805 63 315 8.0 8.0 0.00 0.00 0.00 56 1003.3
20260904221205 64 292 13.0 13.0 0.00 0.00 0.00 59 1003.8
20260904220905 64 337 12.0 12.0 0.00 0.00 0.00 62 1003.8
20260904220606 64 292 11.0 11.0 0.00 0.00 0.00 64 1003.8
20260904220305 64 270 12.0 13.0 0.00 0.00 0.00 66 1003.3
20260904220006 65 270 6.0 6.0 0.00 0.00 0.00 67 1003.3
20260904215709 65 337 6.0 6.0 0.00 0.00 0.00 68 1003.0
20260904215406 65 270 7.0 7.0 0.00 0.00 0.00 68 1003.0
20260904215107 65 270 10.0 10.0 0.00 0.00 0.00 68 1002.8
20260904214806 65 337 11.0 11.0 0.00 0.00 0.00 68 1002.8
20260904214506 65 292 12.0 12.0 0.00 0.00 0.00 67 1003.0
20260904214206 65 315 6.0 6.0 0.00 0.00 0.00 66 1002.8
20260904213906 65 270 9.0 9.0 0.00 0.00 0.00 66 1002.8
20260904213609 66 270 9.0 9.0 0.00 0.00 0.00 65 1002.5
20260904213306 66 270 5.0 5.0 0.00 0.00 0.00 65 1002.3
20260904213006 66 337 7.0 7.0 0.00 0.00 0.00 66 1002.3
20260904212708 66 315 7.0 7.0 0.00 0.00 0.00 66 1002.0
20260904212406 66 337 12.0 13.0 0.00 0.00 0.00 65 1002.0
20260904212105 66 315 13.0 13.0 0.00 0.00 0.00 66 1002.0
20260904211806 67 292 14.0 15.0 0.00 0.00 0.00 67 1001.8
20260904211509 67 337 19.0 19.0 0.00 0.00 0.00 68 1001.8
20260904211206 67 292 9.0 9.0 0.00 0.00 0.00 69 1001.8
20260904210906 68 337 11.0 11.0 0.00 0.00 0.00 68 1001.8
20260904210605 68 270 14.0 14.0 0.00 0.00 0.00 68 1001.8
20260904210307 69 315 11.0 11.0 0.00 0.00 0.00 68 1001.5
20260904210005 70 315 13.0 13.0 0.00 0.00 0.00 67 1001.3
20260904205406 71 270 14.0 14.0 0.00 0.00 0.00 66 1000.8
20260904205107 71 337 8.0 8.0 0.00 0.00 0.00 65 1000.5
20260904204806 72 270 17.0 17.0 0.00 0.00 0.00 65 1000.3
20260904204506 71 0 1.0 1.0 0.00 0.00 0.00 65 999.8
20260904204206 71 0 0.0 0.0 0.00 0.00 0.00 65 999.8
20260904203906 71 315 1.0 1.0 0.00 0.00 0.00 65 999.8
20260904203609 71 0 1.0 1.0 0.00 0.00 0.00 65 999.8
20260904203306 71 292 2.0 2.0 0.00 0.00 0.00 64 999.8
20260904203006 71 270 1.0 1.0 0.00 0.00 0.00 64 999.8
20260904202708 71 270 2.0 2.0 0.00 0.00 0.00 64 999.8
20260904202405 71 337 0.0 0.0 0.00 0.00 0.00 64 999.8
20260904202106 71 337 2.0 2.0 0.00 0.00 0.00 64 999.8
20260904201805 71 225 2.0 2.0 0.00 0.00 0.00 64 999.8
20260904201508 71 292 1.0 1.0 0.00 0.00 0.00 64 999.8
20260904201205 71 270 2.0 2.0 0.00 0.00 0.00 64 999.8
20260904200905 71 292 1.0 1.0 0.00 0.00 0.00 64 999.5
20260904200605 71 337 1.0 1.0 0.00 0.00 0.00 64 999.8
20260904200305 71 270 0.0 0.0 0.00 0.00 0.00 64 999.8
20260904200005 71 270 0.0 0.0 0.00 0.00 0.00 64 999.8
20260904195705 71 315 1.0 1.0 0.00 0.00 0.00 64 999.8
20260904195408 71 292 1.0 1.0 0.00 0.00 0.00 64 999.8
20260904195106 71 270 2.0 2.0 0.00 0.00 0.00 64 999.8
20260904194807 71 315 3.0 3.0 0.00 0.00 0.00 63 999.8
20260904194506 72 337 1.0 1.0 0.00 0.00 0.00 62 999.8
20260904194205 72 315 0.0 0.0 0.00 0.00 0.00 62 999.5
20260904193905 72 337 1.0 1.0 0.00 0.00 0.00 62 999.5
20260904193606 72 270 2.0 2.0 0.00 0.00 0.00 62 999.5
20260904193308 72 337 1.0 1.0 0.00 0.00 0.00 62 999.5
20260904193006 72 270 2.0 2.0 0.00 0.00 0.00 62 999.5
20260904192707 72 337 2.0 2.0 0.00 0.00 0.00 62 999.3
20260904192405 72 270 0.0 0.0 0.00 0.00 0.00 62 999.3
20260904192105 72 247 1.0 1.0 0.00 0.00 0.00 63 999.5
20260904191806 72 247 0.0 0.0 0.00 0.00 0.00 63 999.3
20260904191505 72 270 1.0 1.0 0.00 0.00 0.00 63 999.3
20260904191208 71 247 2.0 2.0 0.00 0.00 0.00 63 999.3
20260904190906 71 270 0.0 0.0 0.00 0.00 0.00 63 999.3
20260904190606 71 337 0.0 0.0 0.00 0.00 0.00 63 999.3
20260904190305 71 315 0.0 0.0 0.00 0.00 0.00 63 999.3
20260904190005 71 315 0.0 0.0 0.00 0.00 0.00 63 999.3
20260904185707 71 315 0.0 0.0 0.00 0.00 0.00 62 999.3
20260904185405 72 270 0.0 0.0 0.00 0.00 0.00 62 999.1
20260904184806 72 0 0.0 0.0 0.00 0.00 0.00 61 999.3
20260904184506 73 270 0.0 0.0 0.00 0.00 0.00 60 999.1
20260904184205 73 337 0.0 0.0 0.00 0.00 0.00 60 999.1
20260904183906 73 315 0.0 0.0 0.00 0.00 0.00 60 999.1
20260904183606 73 270 0.0 0.0 0.00 0.00 0.00 60 999.1
20260904183306 73 337 1.0 1.0 0.00 0.00 0.00 59 999.1
20260904182706 73 337 2.0 2.0 0.00 0.00 0.00 59 998.8
20260904182405 74 270 2.0 2.0 0.00 0.00 0.00 59 998.8
20260904182106 74 202 1.0 1.0 0.00 0.00 0.00 59 998.8
20260904181806 74 270 1.0 1.0 0.00 0.00 0.00 59 998.8
20260904181506 74 270 2.0 2.0 0.00 0.00 0.00 59 998.8
20260904181208 74 315 3.0 3.0 0.00 0.00 0.00 59 998.8
20260904180906 74 270 2.0 2.0 0.00 0.00 0.00 58 998.8
20260904180605 74 270 4.0 4.0 0.00 0.00 0.00 58 998.8
20260904180306 75 270 2.0 2.0 0.00 0.00 0.00 58 998.8
20260904180005 74 247 4.0 4.0 0.00 0.00 0.00 58 998.8
20260904175705 75 225 1.0 1.0 0.00 0.00 0.00 58 998.8
20260904175406 75 225 2.0 2.0 0.00 0.00 0.00 58 998.8
20260904174805 75 270 1.0 1.0 0.00 0.00 0.00 57 998.8
20260904174506 75 247 2.0 2.0 0.00 0.00 0.00 57 998.8
20260904174206 76 337 4.0 4.0 0.00 0.00 0.00 57 998.8
20260904173905 76 247 3.0 3.0 0.00 0.00 0.00 57 998.8
20260904173606 76 225 2.0 2.0 0.00 0.00 0.00 57 998.8
20260904173308 77 337 4.0 4.0 0.00 0.00 0.00 57 998.8
20260904173006 77 292 7.0 7.0 0.00 0.00 0.00 57 998.8
20260904172705 77 315 4.0 4.0 0.00 0.00 0.00 57 998.6
20260904172405 77 292 3.0 3.0 0.00 0.00 0.00 57 998.8
20260904172106 78 0 3.0 3.0 0.00 0.00 0.00 56 998.8
20260904171805 78 247 6.0 6.0 0.00 0.00 0.00 57 998.6
20260904171506 78 270 6.0 6.0 0.00 0.00 0.00 56 998.6
20260904170906 78 270 3.0 3.0 0.00 0.00 0.00 56 998.6
20260904170606 78 270 4.0 4.0 0.00 0.00 0.00 56 998.8
20260904170305 78 270 6.0 6.0 0.00 0.00 0.00 56 998.6
20260904170006 79 202 3.0 3.0 0.00 0.00 0.00 55 998.6
20260904165706 79 247 2.0 2.0 0.00 0.00 0.00 56 998.6
20260904165406 79 225 4.0 4.0 0.00 0.00 0.00 56 998.6
20260904165109 79 315 3.0 3.0 0.00 0.00 0.00 56 998.6
20260904164806 79 270 2.0 2.0 0.00 0.00 0.00 56 998.6
20260904164506 80 270 5.0 5.0 0.00 0.00 0.00 56 998.8
20260904164206 79 270 2.0 2.0 0.00 0.00 0.00 56 998.8
20260904163906 80 270 5.0 5.0 0.00 0.00 0.00 56 998.8
20260904163606 79 247 2.0 2.0 0.00 0.00 0.00 56 998.8
20260904163305 79 337 2.0 2.0 0.00 0.00 0.00 56 998.8
20260904162705 78 292 2.0 2.0 0.00 0.00 0.00 56 998.8
20260904162406 78 225 5.0 5.0 0.00 0.00 0.00 56 998.8
20260904162107 78 270 6.0 6.0 0.00 0.00 0.00 56 998.8
20260904161806 78 337 2.0 2.0 0.00 0.00 0.00 56 998.8
20260904161506 78 337 4.0 4.0 0.00 0.00 0.00 56 999.1
20260904161206 78 337 6.0 6.0 0.00 0.00 0.00 56 999.1
20260904160605 78 315 5.0 5.0 0.00 0.00 0.00 56 999.3
20260904160306 78 270 1.0 1.0 0.00 0.00 0.00 56 999.1
20260904160006 78 270 4.0 4.0 0.00 0.00 0.00 56 999.1
20260904155706 78 225 7.0 7.0 0.00 0.00 0.00 56 999.1
20260904155406 78 225 4.0 4.0 0.00 0.00 0.00 55 998.8
20260904155105 78 225 4.0 4.0 0.00 0.00 0.00 56 999.1
20260904154809 79 337 3.0 3.0 0.00 0.00 0.00 56 999.1
20260904154506 78 270 6.0 6.0 0.00 0.00 0.00 56 999.1
20260904154205 79 270 10.0 11.0 0.00 0.00 0.00 56 999.3
20260904153905 79 225 7.0 7.0 0.00 0.00 0.00 56 999.1
20260904153606 79 292 2.0 2.0 0.00 0.00 0.00 56 999.1
20260904153306 79 270 3.0 3.0 0.00 0.00 0.00 55 999.1
20260904152707 80 270 4.0 4.0 0.00 0.00 0.00 57 999.1
20260904152406 79 225 6.0 6.0 0.00 0.00 0.00 57 999.1
20260904152106 78 225 4.0 4.0 0.00 0.00 0.00 57 998.8
20260904151806 78 225 2.0 2.0 0.00 0.00 0.00 57 999.1
20260904151505 78 247 5.0 5.0 0.00 0.00 0.00 57 999.1
20260904150906 78 270 3.0 3.0 0.00 0.00 0.00 56 998.8
20260904150606 78 225 1.0 1.0 0.00 0.00 0.00 56 999.1
20260904150305 78 337 7.0 7.0 0.00 0.00 0.00 57 999.1
20260904150005 78 202 7.0 7.0 0.00 0.00 0.00 56 999.1
20260904145706 78 247 1.0 2.0 0.00 0.00 0.00 56 999.1
20260904145406 78 270 6.0 6.0 0.00 0.00 0.00 56 999.1
20260904144805 78 225 4.0 4.0 0.00 0.00 0.00 56 999.3
20260904144506 78 292 3.0 3.0 0.00 0.00 0.00 56 999.1
20260904144206 78 315 2.0 2.0 0.00 0.00 0.00 55 999.1
20260904143906 78 247 7.0 7.0 0.00 0.00 0.00 55 999.3
20260904143606 79 337 3.0 3.0 0.00 0.00 0.00 56 999.1
20260904143306 79 270 2.0 2.0 0.00 0.00 0.00 55 999.3
20260904143009 79 270 6.0 6.0 0.00 0.00 0.00 55 999.3
20260904142706 80 270 5.0 5.0 0.00 0.00 0.00 55 999.3
20260904142407 80 337 8.0 8.0 0.00 0.00 0.00 56 999.3
20260904142106 80 202 4.0 4.0 0.00 0.00 0.00 55 999.3
20260904141806 80 270 7.0 7.0 0.00 0.00 0.00 56 999.3
20260904141505 80 225 5.0 5.0 0.00 0.00 0.00 56 999.3
20260904140906 80 292 6.0 6.0 0.00 0.00 0.00 56 999.3
20260904140606 80 225 8.0 8.0 0.00 0.00 0.00 56 999.5
20260904140306 80 337 9.0 9.0 0.00 0.00 0.00 57 999.5
20260904140006 79 180 4.0 4.0 0.00 0.00 0.00 56 999.5
20260904135705 80 270 9.0 9.0 0.00 0.00 0.00 56 999.5
20260904135405 80 337 11.0 11.0 0.00 0.00 0.00 56 999.5
20260904134806 79 247 5.0 5.0 0.00 0.00 0.00 57 999.5
20260904134506 79 225 13.0 13.0 0.00 0.00 0.00 56 999.8
20260904134206 79 225 7.0 7.0 0.00 0.00 0.00 58 999.8
20260904133906 80 225 6.0 6.0 0.00 0.00 0.00 59 999.8
20260904133606 79 225 6.0 6.0 0.00 0.00 0.00 60 999.8
20260904133309 79 225 8.0 8.0 0.00 0.00 0.00 60 999.8
20260904133006 78 225 4.0 4.0 0.00 0.00 0.00 59 999.8
20260904132706 78 225 1.0 1.0 0.00 0.00 0.00 60 999.8
20260904132405 78 337 4.0 4.0 0.00 0.00 0.00 60 999.8
20260904132106 78 180 5.0 5.0 0.00 0.00 0.00 60 999.8
20260904131805 78 202 8.0 8.0 0.00 0.00 0.00 59 1000.0
20260904131508 78 180 4.0 4.0 0.00 0.00 0.00 61 1000.0
20260904131205 79 202 2.0 2.0 0.00 0.00 0.00 60 1000.0
20260904130905 79 225 5.0 5.0 0.00 0.00 0.00 60 1000.3
20260904130605 79 225 3.0 3.0 0.00 0.00 0.00 59 1000.3
20260904130307 79 225 4.0 4.0 0.00 0.00 0.00 59 1000.3
20260904130006 80 247 3.0 3.0 0.00 0.00 0.00 60 1000.3
20260904125709 80 225 5.0 5.0 0.00 0.00 0.00 60 1000.3
20260904125405 80 337 9.0 9.0 0.00 0.00 0.00 61 1000.3
20260904125105 80 247 8.0 8.0 0.00 0.00 0.00 60 1000.3
20260904124806 80 337 4.0 4.0 0.00 0.00 0.00 62 1000.3
20260904124505 79 202 6.0 6.0 0.00 0.00 0.00 62 1000.5
20260904124206 78 225 8.0 8.0 0.00 0.00 0.00 61 1000.5
20260904123606 79 225 5.0 5.0 0.00 0.00 0.00 62 1000.8
20260904123306 79 270 6.0 6.0 0.00 0.00 0.00 63 1000.8
20260904123009 77 202 10.0 10.0 0.00 0.00 0.00 63 1000.8
20260904122705 77 225 9.0 9.0 0.00 0.00 0.00 62 1000.8
20260904122406 78 225 4.0 4.0 0.00 0.00 0.00 63 1001.0
20260904122106 78 247 7.0 7.0 0.00 0.00 0.00 62 1001.0
20260904121506 78 270 5.0 5.0 0.00 0.00 0.00 63 1001.3
20260904121205 78 180 8.0 9.0 0.00 0.00 0.00 63 1001.3
20260904120906 78 225 7.0 7.0 0.00 0.00 0.00 63 1001.3